When you browse on this site, cookies collect data to enhance your experience and personalize the content and advertising you see.
Visit our Privacy Policy to learn more. By continuing to use the site, you agree to this use of cookies and data.
  • In Slovakia
  • List of Countries
  • For 7 days
  • Water Temperature
  • Weather Map
  • Weather Widgets
  • user-avatar
    Login

    Hourly Weather Kivach

    Today, 7 April, Tuesday

    Time Temperature Precipitation Wind Pressure Humidity
    00:00 -3°C° 0 mm 2 mps 768 mmHg 63%
    01:00 -4°C° 0 mm 3 mps 767 mmHg 62%
    02:00 -4°C° 0 mm 3 mps 767 mmHg 62%
    03:00 -4°C° 0.2 mm 3 mps 766 mmHg 70%
    04:00 -4°C° 0.2 mm 3 mps 765 mmHg 78%
    05:00 -4°C° 0.2 mm 4 mps 765 mmHg 87%
    06:00 -3°C° 0 mm 4 mps 764 mmHg 86%
    07:00 -1°C° 0 mm 3 mps 763 mmHg 85%
    08:00 -1°C° 0 mm 4 mps 763 mmHg 84%
    09:00 +1°C° 0 mm 4 mps 762 mmHg 82%
    10:00 +3°C° 0 mm 4 mps 761 mmHg 81%
    11:00 +4°C° 0 mm 4 mps 760 mmHg 80%
    12:00 +5°C° 0 mm 4 mps 759 mmHg 77%
    13:00 +5°C° 0 mm 4 mps 758 mmHg 75%
    14:00 +6°C° 0 mm 4 mps 758 mmHg 73%
    15:00 +6°C° 0 mm 4 mps 757 mmHg 75%
    16:00 +5°C° 0 mm 4 mps 756 mmHg 76%
    17:00 +5°C° 0 mm 3 mps 755 mmHg 78%
    18:00 +4°C° 0 mm 3 mps 754 mmHg 80%
    19:00 +3°C° 0 mm 3 mps 754 mmHg 83%
    20:00 +2°C° 0 mm 3 mps 753 mmHg 85%
    21:00 +2°C° 0 mm 3 mps 753 mmHg 87%
    22:00 +2°C° 0 mm 2 mps 753 mmHg 89%
    23:00 +2°C° 0 mm 2 mps 752 mmHg 91%

    Tomorrow, 8 April, Wednesday

    Time Temperature Precipitation Wind Pressure Humidity
    00:00 +1°C° 0 mm 3 mps 753 mmHg 91%
    01:00 +1°C° 0 mm 3 mps 753 mmHg 91%
    02:00 0°C° 0 mm 4 mps 753 mmHg 91%
    03:00 0°C° 0 mm 4 mps 754 mmHg 90%
    04:00 0°C° 0 mm 4 mps 755 mmHg 88%
    05:00 +1°C° 0 mm 5 mps 755 mmHg 87%
    06:00 +1°C° 0 mm 5 mps 756 mmHg 84%
    07:00 +2°C° 0 mm 5 mps 757 mmHg 81%
    08:00 +3°C° 0 mm 4 mps 757 mmHg 78%
    09:00 +4°C° 0 mm 4 mps 758 mmHg 74%
    10:00 +5°C° 0 mm 4 mps 758 mmHg 69%
    11:00 +7°C° 0 mm 3 mps 758 mmHg 65%
    12:00 +7°C° 0 mm 3 mps 758 mmHg 66%
    13:00 +7°C° 0 mm 4 mps 758 mmHg 68%
    14:00 +7°C° 0 mm 4 mps 757 mmHg 70%
    15:00 +7°C° 0 mm 4 mps 757 mmHg 73%
    16:00 +6°C° 0 mm 4 mps 757 mmHg 76%
    17:00 +6°C° 0 mm 4 mps 756 mmHg 79%
    18:00 +5°C° 0 mm 4 mps 756 mmHg 77%
    19:00 +4°C° 0 mm 4 mps 755 mmHg 75%
    20:00 +2°C° 0 mm 5 mps 754 mmHg 73%
    21:00 +2°C° 0 mm 5 mps 753 mmHg 74%
    22:00 +2°C° 0 mm 5 mps 752 mmHg 74%
    23:00 +2°C° 0 mm 5 mps 752 mmHg 75%

    Day after tomorrow, 9 April, Thursday

    Time Temperature Precipitation Wind Pressure Humidity
    00:00 +2°C° 0 mm 5 mps 751 mmHg 77%
    01:00 +1°C° 0 mm 5 mps 750 mmHg 78%
    02:00 +1°C° 0 mm 5 mps 749 mmHg 80%
    03:00 +1°C° 0 mm 5 mps 748 mmHg 82%
    04:00 +1°C° 0 mm 5 mps 747 mmHg 84%
    05:00 +1°C° 0 mm 5 mps 746 mmHg 85%
    06:00 +1°C° 0.1 mm 5 mps 746 mmHg 88%
    07:00 +1°C° 0.1 mm 5 mps 745 mmHg 90%
    08:00 +1°C° 0.1 mm 5 mps 745 mmHg 92%
    09:00 +1°C° 0.4 mm 4 mps 745 mmHg 91%
    10:00 +1°C° 0.4 mm 4 mps 745 mmHg 90%
    11:00 +2°C° 0.4 mm 3 mps 745 mmHg 88%
    12:00 +3°C° 0 mm 3 mps 745 mmHg 80%
    13:00 +4°C° 0 mm 4 mps 746 mmHg 72%
    14:00 +5°C° 0 mm 5 mps 746 mmHg 63%
    15:00 +4°C° 0.1 mm 4 mps 746 mmHg 65%
    16:00 +4°C° 0.1 mm 4 mps 747 mmHg 66%
    17:00 +3°C° 0.1 mm 4 mps 747 mmHg 67%
    18:00 +2°C° 0 mm 3 mps 747 mmHg 73%
    19:00 +1°C° 0 mm 3 mps 748 mmHg 78%
    20:00 +1°C° 0 mm 2 mps 749 mmHg 84%
    21:00 +1°C° 0 mm 2 mps 749 mmHg 84%
    22:00 -1°C° 0 mm 2 mps 750 mmHg 84%
    23:00 -1°C° 0 mm 2 mps 750 mmHg 84%

    10 April, Friday

    Time Temperature Precipitation Wind Pressure Humidity
    00:00 -2°C° 0 mm 2 mps 751 mmHg 84%
    01:00 -3°C° 0 mm 2 mps 752 mmHg 85%
    02:00 -3°C° 0 mm 2 mps 752 mmHg 85%
    03:00 -4°C° 0 mm 2 mps 753 mmHg 82%
    04:00 -4°C° 0 mm 2 mps 753 mmHg 80%
    05:00 -4°C° 0 mm 2 mps 754 mmHg 78%
    06:00 -4°C° 0 mm 2 mps 754 mmHg 72%
    07:00 -3°C° 0 mm 2 mps 755 mmHg 67%
    08:00 -3°C° 0 mm 2 mps 755 mmHg 62%
    09:00 -2°C° 0 mm 2 mps 755 mmHg 59%
    10:00 -2°C° 0 mm 2 mps 756 mmHg 56%
    11:00 -1°C° 0 mm 2 mps 756 mmHg 54%
    12:00 -1°C° 0 mm 2 mps 756 mmHg 52%
    13:00 +1°C° 0 mm 2 mps 756 mmHg 51%
    14:00 +1°C° 0 mm 2 mps 756 mmHg 50%
    15:00 +1°C° 0 mm 2 mps 756 mmHg 51%
    16:00 -1°C° 0 mm 2 mps 756 mmHg 51%
    17:00 -1°C° 0 mm 2 mps 756 mmHg 52%
    18:00 0°C° 0 mm 1 mps 757 mmHg 57%
    19:00 0°C° 0 mm 1 mps 757 mmHg 62%
    20:00 -1°C° 0 mm 1 mps 757 mmHg 67%
    21:00 -1°C° 0 mm 1 mps 757 mmHg 68%
    22:00 -2°C° 0 mm 1 mps 757 mmHg 68%
    23:00 -2°C° 0 mm 1 mps 757 mmHg 69%

    11 April, Saturday

    Time Temperature Precipitation Wind Pressure Humidity
    00:00 -2°C° 0 mm 1 mps 757 mmHg 68%
    01:00 -2°C° 0 mm 1 mps 757 mmHg 68%
    02:00 -4°C° 0 mm 2 mps 757 mmHg 68%
    03:00 -4°C° 0 mm 2 mps 758 mmHg 68%
    04:00 -4°C° 0 mm 2 mps 758 mmHg 69%
    05:00 -4°C° 0 mm 2 mps 758 mmHg 69%
    06:00 -3°C° 0 mm 2 mps 758 mmHg 64%
    07:00 -2°C° 0 mm 2 mps 758 mmHg 59%
    08:00 -1°C° 0 mm 3 mps 759 mmHg 54%
    09:00 0°C° 0 mm 3 mps 759 mmHg 49%
    10:00 +1°C° 0 mm 3 mps 759 mmHg 45%
    11:00 +1°C° 0 mm 3 mps 759 mmHg 40%
    12:00 +2°C° 0 mm 3 mps 759 mmHg 39%
    13:00 +2°C° 0 mm 3 mps 759 mmHg 38%
    14:00 +2°C° 0 mm 3 mps 759 mmHg 38%
    15:00 +2°C° 0 mm 3 mps 758 mmHg 43%
    16:00 +3°C° 0 mm 2 mps 758 mmHg 47%
    17:00 +2°C° 0 mm 2 mps 758 mmHg 52%
    18:00 +1°C° 0 mm 2 mps 758 mmHg 60%
    19:00 -1°C° 0 mm 2 mps 759 mmHg 67%
    20:00 -2°C° 0 mm 2 mps 759 mmHg 74%
    21:00 -2°C° 0 mm 2 mps 759 mmHg 76%
    22:00 -3°C° 0 mm 2 mps 759 mmHg 78%
    23:00 -3°C° 0 mm 2 mps 759 mmHg 80%

    12 April, Sunday

    Time Temperature Precipitation Wind Pressure Humidity
    00:00 -1°C° 0 mm 1 mps 759 mmHg 80%
    01:00 -1°C° 0 mm 1 mps 759 mmHg 80%
    02:00 -1°C° 0 mm 1 mps 759 mmHg 80%
    03:00 -1°C° 0 mm 1 mps 758 mmHg 79%
    04:00 -1°C° 0 mm 1 mps 758 mmHg 77%
    05:00 -1°C° 0 mm 1 mps 758 mmHg 76%
    06:00 0°C° 0 mm 1 mps 758 mmHg 74%
    07:00 -1°C° 0 mm 2 mps 757 mmHg 72%
    08:00 +1°C° 0 mm 2 mps 757 mmHg 71%
    09:00 +1°C° 0 mm 3 mps 756 mmHg 63%
    10:00 +1°C° 0 mm 3 mps 756 mmHg 56%
    11:00 +1°C° 0 mm 4 mps 755 mmHg 49%
    12:00 +1°C° 0 mm 4 mps 754 mmHg 54%
    13:00 +1°C° 0 mm 4 mps 753 mmHg 58%
    14:00 0°C° 0 mm 5 mps 753 mmHg 63%
    15:00 0°C° 0.2 mm 5 mps 752 mmHg 73%
    16:00 -1°C° 0.2 mm 5 mps 751 mmHg 83%
    17:00 -2°C° 0.2 mm 5 mps 749 mmHg 94%
    18:00 -2°C° 0.5 mm 5 mps 748 mmHg 94%
    19:00 -2°C° 0.5 mm 5 mps 747 mmHg 95%
    20:00 -2°C° 0.5 mm 5 mps 746 mmHg 95%
    21:00 -2°C° 0.6 mm 5 mps 745 mmHg 96%
    22:00 -3°C° 0.6 mm 6 mps 743 mmHg 96%
    23:00 -3°C° 0.6 mm 6 mps 742 mmHg 96%
    Show more